Regional Weather Roundup
Issued by NWS

Home | Current Version | Previous Version | Text Only | Print | Product List | Glossary Off
Versions: 1 2 3 4 5 6 7 8 9 10 11 12 13 14 15 16 17 18 19 20 21 22 23 24 25 26 27 28 29 30 31 32 33 34 35 36 37 38 39 40 41 42 43 44 45 46 47 48 49 50

000
ASUS43 KIND 050759
RWRIN

WEATHER ROUNDUP FOR INDIANA
NATIONAL WEATHER SERVICE INDIANAPOLIS IN
400 AM EDT TUE MAY 05 2015

NOTE: "FAIR" INDICATES FEW OR NO CLOUDS BELOW 12,000 FEET WITH NO
SIGNIFICANT WEATHER AND/OR OBSTRUCTIONS TO VISIBILITY.

* - STATION DOES NOT REPORT WEATHER SUCH AS PRECIPITATION OR FOG.

+ - STATION NOT QUALITY CONTROLLED BY THE NATIONAL WEATHER SERVICE.
    USE DATA WITH CAUTION...ESPECIALLY DEWPOINT AND RELATIVE
    HUMIDITY OBSERVATIONS.

INZ001>003-010>013-019-020-050900-
NORTHWEST INDIANA

CITY           SKY/WX    TMP DP  RH WIND       PRES   REMARKS

$$

LMZ046-743>745-050900-
SOUTHERN LAKE MICHIGAN

STATION/POSITION TIME  TEMP    WIND        PRES    WAVE
                       AIR SEA DIR/SP/G            HT
                 (UTC) (F)     (DEG/KT/KT) (MB)    (FT)
BURNS HARBOR     0700   56     250/ 13/ 19 1023.0R
MICHIGAN CITY    0700   59      50/  3/  3   N/A
5NW MICH CITY    0700   53 50   60/  6/  6   N/A     1

$$

INZ004-005-014>016-021>024-050900-
NORTH CENTRAL INDIANA

CITY           SKY/WX    TMP DP  RH WIND       PRES   REMARKS
GOSHEN         MOCLDY    58  57  97 S7        30.19R FOG
PERU/GRISSOM   LGT RAIN  63  61  94 E7        30.16F
SOUTH BEND     MOCLDY    60  54  80 NE3       30.18S

$$

INZ006>009-017-018-025>027-050900-
NORTHEAST INDIANA

CITY           SKY/WX    TMP DP  RH WIND       PRES   REMARKS
ANGOLA *+      CLOUDY    55  55 100 CALM      30.18F VSB 0
FORT WAYNE     MOCLDY    58  57  97 E5        30.19S

$$

INZ028-029-035-036-043>045-051>053-050900-
WEST CENTRAL INDIANA

CITY           SKY/WX    TMP DP  RH WIND       PRES   REMARKS
CRAWFORDSVL +  MOCLDY    60  53  78 S3        30.16S
GREENCASTLE +  PTCLDY    59  55  88 S3        30.18S FOG
LAFAYETTE      CLOUDY    61  59  93 N5        30.16R
TERRE HAUTE    PTCLDY    66  55  67 S8        30.16S

$$

INZ030>032-037>040-046>048-054>057-064-065-050900-
CENTRAL INDIANA

CITY           SKY/WX    TMP DP  RH WIND       PRES   REMARKS
GREENWOOD *+   CLOUDY    64  61  88 SE5       30.19S
INDIANAPOLIS   MOCLDY    63  59  87 SE7       30.16F
-EAGLE CREEK   CLOUDY    63  60  90 CALM      30.17F FOG
KOKOMO *+      CLOUDY    61  61 100 E6        30.17F
MT COMFORT *+  PTCLDY    61 N/A N/A SE7       30.19S
SHELBYVILLE    CLOUDY    64  59  83 SE6       30.19R

$$

INZ033-034-041-042-049-050-058-059-050900-
EAST CENTRAL INDIANA

CITY           SKY/WX    TMP DP  RH WIND       PRES   REMARKS
MUNCIE         CLOUDY    62  59  90 S7        30.18F

$$

INZ060-061-067>069-081>083-085>088-050900-
SOUTHWEST INDIANA

CITY           SKY/WX    TMP DP  RH WIND       PRES   REMARKS
EVANSVILLE     CLEAR     63  55  75 CALM      30.20R
HUNTINGBURG *+ CLEAR     64  54  68 S6        30.20S

$$

INZ062-063-066-070>080-084-089>092-050900-
SOUTH CENTRAL AND SOUTHEAST INDIANA

CITY           SKY/WX    TMP DP  RH WIND       PRES   REMARKS
BLOOMINGTON    PTCLDY    64  54  69 S6        30.19R
MADISON *+     CLEAR     61  55  82 CALM      30.23S
SEYMOUR +      CLEAR     59  57  94 CALM      30.19S

$$



USA.gov is the U.S. government's official web portal to all federal, state and local government web resources and services.